• In Schweiz
  • Länderverzeichnis
  • Für 7 Tage
  • Wassertemperatur
  • Satellitenkarten
  • Wetterkarte
  • Widgets
  • user-avatar
    Anmelden

    Stündliche Wetter Førde

    Heute, 18 Oktober, Donnerstag

    Zeit Temperatur Niederschläge Wind Luftdruck Luftfeuchtigkeit
    00:00 +2°C° 0 mm 5 m/S 709 mmHg 88%
    01:00 +2°C° 0.4 mm 5 m/S 710 mmHg 88%
    02:00 +2°C° 0.4 mm 6 m/S 710 mmHg 87%
    03:00 +2°C° 0.4 mm 6 m/S 710 mmHg 87%
    04:00 +2°C° 0.3 mm 6 m/S 710 mmHg 87%
    05:00 +2°C° 0.3 mm 5 m/S 711 mmHg 87%
    06:00 +2°C° 0 mm 5 m/S 711 mmHg 87%
    07:00 +3°C° 0.2 mm 4 m/S 711 mmHg 87%
    08:00 +3°C° 0.2 mm 4 m/S 711 mmHg 87%
    09:00 +3°C° 0.2 mm 4 m/S 712 mmHg 88%
    10:00 +3°C° 0.2 mm 3 m/S 712 mmHg 86%
    11:00 +3°C° 0.2 mm 3 m/S 713 mmHg 84%
    12:00 +4°C° 0.2 mm 3 m/S 713 mmHg 83%
    13:00 +4°C° 0.1 mm 3 m/S 713 mmHg 84%
    14:00 +5°C° 0.1 mm 2 m/S 713 mmHg 85%
    15:00 +4°C° 0.1 mm 2 m/S 713 mmHg 85%
    16:00 +4°C° 0.1 mm 2 m/S 714 mmHg 87%
    17:00 +4°C° 0.1 mm 2 m/S 714 mmHg 89%
    18:00 +3°C° 0.1 mm 2 m/S 714 mmHg 91%
    19:00 +3°C° 0 mm 2 m/S 714 mmHg 91%
    20:00 +3°C° 0 mm 2 m/S 714 mmHg 92%
    21:00 +3°C° 0 mm 2 m/S 715 mmHg 92%
    22:00 +3°C° 0 mm 2 m/S 714 mmHg 92%
    23:00 +3°C° 0 mm 2 m/S 714 mmHg 93%

    Morgen, 19 Oktober, Freitag

    Zeit Temperatur Niederschläge Wind Luftdruck Luftfeuchtigkeit
    00:00 +2°C° 0 mm 3 m/S 714 mmHg 93%
    01:00 +2°C° 0 mm 3 m/S 714 mmHg 93%
    02:00 +2°C° 0 mm 3 m/S 713 mmHg 93%
    03:00 +1°C° 0 mm 3 m/S 713 mmHg 93%
    04:00 +1°C° 0 mm 3 m/S 713 mmHg 92%
    05:00 +1°C° 0 mm 4 m/S 713 mmHg 91%
    06:00 +1°C° 0 mm 4 m/S 712 mmHg 90%
    07:00 +1°C° 0.1 mm 4 m/S 712 mmHg 88%
    08:00 +2°C° 0.1 mm 5 m/S 712 mmHg 86%
    09:00 +2°C° 0.1 mm 5 m/S 712 mmHg 85%
    10:00 +2°C° 0.1 mm 5 m/S 711 mmHg 84%
    11:00 +3°C° 0.1 mm 6 m/S 711 mmHg 83%
    12:00 +3°C° 0.1 mm 6 m/S 710 mmHg 82%
    13:00 +3°C° 0.4 mm 6 m/S 710 mmHg 83%
    14:00 +3°C° 0.4 mm 6 m/S 710 mmHg 85%
    15:00 +2°C° 0.4 mm 7 m/S 709 mmHg 87%
    16:00 +2°C° 1.7 mm 6 m/S 709 mmHg 89%
    17:00 +2°C° 1.7 mm 6 m/S 709 mmHg 91%
    18:00 +2°C° 1.7 mm 5 m/S 709 mmHg 93%
    19:00 +2°C° 0.8 mm 5 m/S 710 mmHg 93%
    20:00 +2°C° 0.8 mm 5 m/S 710 mmHg 93%
    21:00 +2°C° 0.8 mm 5 m/S 710 mmHg 94%
    22:00 +3°C° 0.5 mm 4 m/S 711 mmHg 93%
    23:00 +3°C° 0.5 mm 4 m/S 711 mmHg 93%

    übermorgen, 20 Oktober, Samstag

    Zeit Temperatur Niederschläge Wind Luftdruck Luftfeuchtigkeit
    00:00 +2°C° 0.5 mm 3 m/S 712 mmHg 93%
    01:00 +2°C° 0.2 mm 3 m/S 712 mmHg 93%
    02:00 +2°C° 0.2 mm 3 m/S 713 mmHg 93%
    03:00 +3°C° 0.2 mm 2 m/S 713 mmHg 93%
    04:00 +3°C° 0.1 mm 2 m/S 713 mmHg 93%
    05:00 +2°C° 0.1 mm 2 m/S 714 mmHg 93%
    06:00 +2°C° 0.1 mm 2 m/S 714 mmHg 93%
    07:00 +2°C° 0 mm 3 m/S 714 mmHg 91%
    08:00 +2°C° 0 mm 3 m/S 714 mmHg 90%
    09:00 +3°C° 0 mm 3 m/S 714 mmHg 88%
    10:00 +3°C° 0 mm 4 m/S 714 mmHg 86%
    11:00 +3°C° 0 mm 5 m/S 714 mmHg 84%
    12:00 +3°C° 0 mm 5 m/S 714 mmHg 81%
    13:00 +3°C° 0 mm 6 m/S 714 mmHg 82%
    14:00 +3°C° 0 mm 6 m/S 714 mmHg 82%
    15:00 +3°C° 0 mm 6 m/S 713 mmHg 83%
    16:00 +3°C° 0.2 mm 6 m/S 713 mmHg 83%
    17:00 +3°C° 0.2 mm 6 m/S 712 mmHg 83%
    18:00 +3°C° 0.2 mm 6 m/S 712 mmHg 83%
    19:00 +3°C° 0.9 mm 6 m/S 711 mmHg 85%
    20:00 +3°C° 0.9 mm 6 m/S 710 mmHg 87%
    21:00 +3°C° 0.9 mm 7 m/S 710 mmHg 88%
    22:00 +3°C° 1.5 mm 7 m/S 709 mmHg 90%
    23:00 +4°C° 1.5 mm 7 m/S 709 mmHg 92%

    21 Oktober, Sonntag

    Zeit Temperatur Niederschläge Wind Luftdruck Luftfeuchtigkeit
    00:00 +4°C° 1.5 mm 7 m/S 708 mmHg 94%
    01:00 +5°C° 3.9 mm 7 m/S 708 mmHg 95%
    02:00 +5°C° 3.9 mm 6 m/S 708 mmHg 96%
    03:00 +7°C° 3.9 mm 6 m/S 708 mmHg 97%
    04:00 +6°C° 3.3 mm 5 m/S 708 mmHg 97%
    05:00 +7°C° 3.3 mm 3 m/S 708 mmHg 97%
    06:00 +6°C° 3.3 mm 2 m/S 708 mmHg 97%
    07:00 +5°C° 0.2 mm 3 m/S 708 mmHg 95%
    08:00 +5°C° 0.2 mm 3 m/S 708 mmHg 94%
    09:00 +5°C° 0.2 mm 4 m/S 708 mmHg 92%
    10:00 +4°C° 1.3 mm 4 m/S 708 mmHg 93%
    11:00 +3°C° 1.3 mm 5 m/S 707 mmHg 94%
    12:00 +3°C° 1.3 mm 5 m/S 707 mmHg 95%
    13:00 +3°C° 2 mm 5 m/S 707 mmHg 95%
    14:00 +2°C° 2 mm 5 m/S 706 mmHg 96%
    15:00 +2°C° 2 mm 6 m/S 706 mmHg 96%
    16:00 +2°C° 1.8 mm 6 m/S 706 mmHg 95%
    17:00 +2°C° 1.8 mm 7 m/S 706 mmHg 94%
    18:00 +1°C° 1.8 mm 8 m/S 705 mmHg 93%
    19:00 0°C° 1 mm 9 m/S 705 mmHg 89%
    20:00 0°C° 1 mm 10 m/S 706 mmHg 85%
    21:00 -2°C° 1 mm 11 m/S 706 mmHg 80%
    22:00 -2°C° 0.8 mm 11 m/S 706 mmHg 81%
    23:00 -2°C° 0.8 mm 11 m/S 706 mmHg 83%

    22 Oktober, Montag

    Zeit Temperatur Niederschläge Wind Luftdruck Luftfeuchtigkeit
    00:00 -2°C° 0.8 mm 11 m/S 706 mmHg 84%
    01:00 -2°C° 0.9 mm 11 m/S 706 mmHg 84%
    02:00 -2°C° 0.9 mm 11 m/S 706 mmHg 84%
    03:00 -2°C° 0.9 mm 11 m/S 706 mmHg 85%
    04:00 -2°C° 1.2 mm 11 m/S 706 mmHg 85%
    05:00 -2°C° 1.2 mm 11 m/S 706 mmHg 86%
    06:00 -2°C° 1.2 mm 11 m/S 706 mmHg 86%
    07:00 -2°C° 0.9 mm 10 m/S 706 mmHg 87%
    08:00 -2°C° 0.9 mm 10 m/S 706 mmHg 87%
    09:00 -1°C° 0.9 mm 9 m/S 707 mmHg 88%
    10:00 -1°C° 0.6 mm 9 m/S 707 mmHg 87%
    11:00 -1°C° 0.6 mm 8 m/S 707 mmHg 86%
    12:00 -1°C° 0.6 mm 7 m/S 707 mmHg 85%
    13:00 -1°C° 0.4 mm 6 m/S 707 mmHg 87%
    14:00 0°C° 0.4 mm 5 m/S 707 mmHg 89%
    15:00 0°C° 0.4 mm 4 m/S 706 mmHg 90%
    16:00 0°C° 1.5 mm 5 m/S 706 mmHg 93%
    17:00 0°C° 1.5 mm 5 m/S 705 mmHg 95%
    18:00 0°C° 1.5 mm 5 m/S 705 mmHg 97%
    19:00 0°C° 1.2 mm 5 m/S 704 mmHg 97%
    20:00 +1°C° 1.2 mm 6 m/S 704 mmHg 97%
    21:00 +1°C° 1.2 mm 6 m/S 704 mmHg 97%
    22:00 0°C° 0.9 mm 7 m/S 704 mmHg 95%
    23:00 0°C° 0.9 mm 8 m/S 704 mmHg 93%

    23 Oktober, Dienstag

    Zeit Temperatur Niederschläge Wind Luftdruck Luftfeuchtigkeit
    00:00 -1°C° 0.9 mm 9 m/S 704 mmHg 92%
    01:00 -1°C° 0.2 mm 7 m/S 705 mmHg 90%
    02:00 -2°C° 0.2 mm 6 m/S 705 mmHg 88%
    03:00 -2°C° 0.2 mm 5 m/S 706 mmHg 87%
    04:00 -4°C° 0.1 mm 5 m/S 706 mmHg 88%
    05:00 -3°C° 0.1 mm 4 m/S 707 mmHg 89%
    06:00 -4°C° 0.1 mm 4 m/S 708 mmHg 90%
    07:00 -2°C° 0 mm 3 m/S 708 mmHg 90%
    08:00 -1°C° 0 mm 3 m/S 709 mmHg 90%
    09:00 0°C° 0 mm 3 m/S 709 mmHg 90%
    10:00 0°C° 0 mm 3 m/S 709 mmHg 90%
    11:00 0°C° 0 mm 3 m/S 710 mmHg 90%
    12:00 +2°C° 0 mm 2 m/S 710 mmHg 90%
    13:00 +2°C° 0.1 mm 2 m/S 709 mmHg 91%
    14:00 +2°C° 0.1 mm 2 m/S 709 mmHg 91%
    15:00 +1°C° 0.1 mm 2 m/S 709 mmHg 91%
    16:00 +1°C° 0.5 mm 2 m/S 709 mmHg 91%
    17:00 0°C° 0.5 mm 3 m/S 709 mmHg 92%
    18:00 0°C° 0.5 mm 3 m/S 709 mmHg 92%
    19:00 -1°C° 1.3 mm 4 m/S 708 mmHg 93%
    20:00 -1°C° 1.3 mm 4 m/S 708 mmHg 94%
    21:00 -1°C° 1.3 mm 4 m/S 707 mmHg 95%
    22:00 -1°C° 2.2 mm 4 m/S 707 mmHg 96%
    23:00 -1°C° 2.2 mm 4 m/S 707 mmHg 97%
    Mehr zeigen